Regional Weather Roundup
Issued by NWS

Home | Current Version | Previous Version | Graphics & Text | Print | Product List | Glossary On
Versions: 1 2 3 4 5 6 7 8 9 10 11 12 13 14 15 16 17 18 19 20 21 22 23 24 25 26 27 28 29 30 31 32 33 34 35 36 37 38 39 40 41 42 43 44 45 46 47 48 49 50
000
ASUS43 KDTX 260801
RWRMI
MICHIGAN HOURLY REGIONAL WEATHER ROUNDUP
NATIONAL WEATHER SERVICE DETROIT/PONTIAC MI
400 AM EDT SUN APR 26 2015

NOTE: "FAIR" INDICATES FEW OR NO CLOUDS BELOW 12,000 FEET WITH NO
SIGNIFICANT WEATHER AND/OR OBSTRUCTION TO VISIBILITY.

MIZ047>049-052>055-059>063-066>070-074>076-081>083-260900-
SOUTHEAST LOWER MICHIGAN

CITY           SKY/WX    TMP DP  RH WIND       PRES   REMARKS
ADRIAN         CLEAR     36  27  69 NE10      29.84R WCI  28
ALMA           CLEAR     30  25  82 NW5       29.90R WCI  25
ANN ARBOR      CLEAR     36  25  64 N9        29.84R WCI  29
BAD AXE        CLEAR     33  27  77 N3        29.87S
CARO           CLEAR     30  26  84 CALM      29.87S
DETROIT CITY   CLEAR     35  26  69 N7        29.85R WCI  29
DETROIT        CLEAR     38  26  62 N8        29.84S WCI  32
FLINT          CLEAR     36  23  59 N5        29.88R WCI  32
GROSSE ILE     CLEAR     39  28  65 N9        29.82R WCI  33
HILLSDALE      CLEAR     38  25  61 N6        29.83R WCI  33
HOWELL         CLEAR     33  24  70 N3        29.86R

CITY           SKY/WX    TMP DP  RH WIND       PRES   REMARKS
JACKSON        CLEAR     35  24  64 N7        29.85R WCI  29
LAMBERTVILLE   CLEAR     37  28  70 NE7       29.82S WCI  32
LANSING        CLEAR     33  25  72 N3        29.89R
LAPEER         FAIR      29  24  79 CALM      29.86S
MASON          CLEAR     32  24  71 N3        29.87R
MONROE         CLEAR     37  27  65 N3        29.81S
PONTIAC        CLEAR     34  24  67 N5        29.84S WCI  30
PORT HOPE        N/A     39  32  76 N15       29.85S WCI  31
PORT HURON     CLEAR     34  30  86 N3        29.86R
TRI CITIES     PTCLDY    33  25  72 N6        29.90R WCI  28
MIDLAND        FAIR      30  25  82 CALM      29.89R
TROY           CLEAR     37  26  66 N6        29.86S WCI  32
SAGINAW HB     CLEAR     34  30  86 NW5       29.89R WCI  30
$$
MIZ043>046-050>051-056>058-064>065-071>073-077>080-260900-
SOUTHWEST LOWER MICHIGAN

CITY           SKY/WX    TMP DP  RH WIND       PRES   REMARKS
BATTLE CREEK   CLEAR     34  25  69 N6        29.87R WCI  29
BENTON HARBOR  CLEAR     37  27  67 NE3       29.89R
BIG RAPIDS     CLEAR     31  25  76 CALM      29.91R
COLDWATER      CLEAR     35  27  73 N6        29.85R WCI  29
FREMONT        FAIR      35  22  59 CALM      29.92R
HOLLAND        CLEAR     39  25  57 NE3       29.91R
GRAND RAPIDS   CLEAR     35  24  64 NE6       29.89S WCI  30
IONIA          FAIR      33  25  75 N8        29.88S WCI  25
KALAMAZOO      CLEAR     37  25  61 N5        29.87S WCI  33
LUDINGTON      CLEAR     38  24  58 CALM      29.94S
MARSHALL       CLEAR     34  25  69 N3        29.86R
MOUNT PLEASANT CLEAR     32  27  81 NW3       29.90R
MUSKEGON       CLEAR     38  24  57 NE7       29.92R WCI  33
SOUTH HAVEN    CLEAR     38  26  60 E6        29.89R WCI  34
$$
MIZ016>042-260900-
NORTHERN LOWER MICHIGAN

CITY           SKY/WX    TMP DP  RH WIND       PRES   REMARKS
BEAVER ISLAND  CLEAR     32  26  78 CALM      29.97R
BELLAIRE       CLEAR     32  24  73 CALM      29.95R
CADILLAC       CLEAR     32  23  70 NW5       29.91R WCI  27
CHARLEVOIX     CLEAR     34  30  85 N8        29.98R WCI  27
FRANKFORT      CLEAR     39  23  51 CALM      29.95S
GAYLORD        CLEAR     33  22  63 CALM      29.92R
GRAYLING       CLEAR     23  20  87 CALM      29.92R
HARBOR SPRINGS CLEAR     33  24  67 N5        29.95R WCI  29
HOUGHTON LAKE  CLEAR     34  22  61 N7        29.91R WCI  28
MANISTEE       CLEAR     39  21  48 NE8       29.95R WCI  34
OSCODA         CLEAR     33  25  71 N6        29.89R WCI  28
PELLSTON       CLEAR     28  24  85 NW5       29.96R WCI  23
ROGERS CITY    MOCLDY    31  26  83 CALM      29.94R
TRAVERSE CITY  CLEAR     36  26  67 N8        29.94R WCI  30
$$
MIZ007>008-015-260900-
EASTERN UPPER MICHIGAN

CITY           SKY/WX    TMP DP  RH WIND       PRES   REMARKS
KINROSS        CLEAR     30  28  93 N6        29.95S WCI  24
MACKINAC ISLAN FAIR      33  27  79 N7        29.95S WCI  26
NEWBERRY       CLEAR     30  27  88 N6        29.97S WCI  24
S. S. MARIE    CLEAR     30  25  81 CALM      29.95S
$$
MIZ004>006-011>014-085-260900-
CENTRAL UPPER MICHIGAN

CITY           SKY/WX    TMP DP  RH WIND       PRES   REMARKS
MANISTIQUE     CLEAR     31  25  81 N8        29.98R WCI  23
ESCANABA       CLEAR     32  19  59 N6        30.00R WCI  26
MENOMINEE      CLEAR     30  18  59 NW5       30.00R WCI  25
SAWYER-GWINN   CLEAR     33  18  55 N12       29.99F WCI  24
$$
MIZ001>003-009>011-084-260900-
WESTERN UPPER MICHIGAN

CITY           SKY/WX    TMP DP  RH WIND       PRES   REMARKS
IRON MOUNTAIN  CLEAR     28  19  69 CALM      30.00R
HOUGHTON       CLEAR     33  17  51 NW12      30.04R WCI  24
COPPER HARBOR    N/A     35  23  61 N6        30.05R WCI  30
IRONWOOD       CLEAR     25  23  93 CALM      30.04S
$$

ABBREVIATIONS USED IN REMARKS
   TC - TEMPERATURE IN CELSIUS
  WCI - WIND CHILL INDEX
   HX - HEAT INDEX
  VSB - VISIBILITY



USA.gov is the U.S. government's official web portal to all federal, state and local government web resources and services.